Location: Sweet Grass
(48.9965°N, 111.9649°W)
Time: 08:07:58
(UTC+00:00)

DIWATA 2B (PO-101) - Pass Details

Date: 10 April 2023
Orbit: 581 x 594 km, 98.0° (Epoch: 03 June)

Event Time Altitude Azimuth Distance (km) Brightness Sun altitude
Exits shadow 09:19:55 43° 50° (NE) 832 ? -28.1°
Drops below altitude 10° 09:23:26 10° 358° (N) 1,916 ? -27.8°
Sets 09:25:40 0° 352° (N) 2,823 ? -27.6°
